Location: Berkeley
(37.8716°N, 122.2727°W)
Time: 13:44:07
(UTC-07:00)

Amateur Radio Satellites - All Passes

Search period start: 22 August 2017 13:14
Search period end: 23 August 2017 13:14
Location: Berkeley, 37.8716°N, 122.2727°W

Satellite Date Start Highest point End Downlink Frequencies (MHz)
Time Altitude Azimuth
SRMSAT 22 Aug 13:15:50 13:16:40 10° 170° (S) 13:17:29 437.500
BEESAT 3 22 Aug 13:23:19 13:26:31 22° 50° (NE) 13:29:39 437.485
BUGSAT 1 22 Aug 13:26:54 13:30:58 68° 259° (W) 13:35:01 437.445
DUCHIFAT 1 22 Aug 13:36:02 13:38:22 15° 267° (W) 13:40:43 145.980
BEESAT 2 22 Aug 13:42:08 13:44:06 13° 45° (NE) 13:46:05 435.950
AO-7 22 Aug 13:47:56 13:52:45 17° 51° (NE) 13:57:33 .
RS-15 22 Aug 14:03:15 14:13:40 30° 325° (NW) 14:24:05 29.354- 29.394
AO-85 22 Aug 14:16:59 14:21:15 53° 57° (ENE) 14:25:50 145.980
UKube-1 22 Aug 14:18:52 14:22:44 32° 97° (E) 14:26:34 .
50 SAT 22 Aug 14:24:19 14:27:42 81° 284° (WNW) 14:31:02 437.505
ITAMSAT 1 22 Aug 14:30:52 14:33:24 14° 61° (ENE) 14:35:55 435.822/435.867
Gurwin Techsat 1B 22 Aug 14:31:55 14:37:11 62° 259° (WSW) 14:42:28 435.225
SPROUT 22 Aug 14:43:19 14:46:05 17° 293° (WNW) 14:48:51 437.525
DX 1 22 Aug 14:43:59 14:48:20 81° 285° (WNW) 14:52:40 434.975-435.025
Oscar 19 22 Aug 14:44:17 14:48:45 30° 264° (W) 14:53:16 437.125/150
VELOX 1 22 Aug 14:49:16 14:52:31 20° 293° (WNW) 14:55:44 145.980
BEESAT 3 22 Aug 15:00:38 15:04:04 29° 247° (WSW) 15:07:28 437.485
SRMSAT 22 Aug 15:02:24 15:04:56 13° 181° (S) 15:07:27 437.500
Tancredo 1 22 Aug 15:09:58 15:12:38 32° 34° (NNE) 15:15:17 437.200
ISS 22 Aug 15:15:11 15:17:13 15° 23° (NNE) 15:19:14 437.550
YUBILEINY 22 Aug 15:16:27 15:23:50 31° 84° (E) 15:31:10 435.215
BEESAT 2 22 Aug 15:18:15 15:22:16 63° 242° (WSW) 15:26:12 435.950
nSIGHT-1 22 Aug 15:21:00 15:23:13 17° 25° (NNE) 15:25:24 .
BEESAT 22 Aug 15:30:39 15:34:16 21° 95° (E) 15:37:52 436.000
AO-7 22 Aug 15:35:50 15:44:11 78° 70° (ENE) 15:52:33 .
UKube-1 22 Aug 15:55:21 15:58:32 20° 293° (WNW) 16:01:41 .
AO-85 22 Aug 15:58:46 16:01:19 15° 250° (WSW) 16:03:57 145.980
ITUPSAT 1 22 Aug 16:05:31 16:10:09 49° 100° (E) 16:14:47 437.325
ITAMSAT 1 22 Aug 16:07:02 16:12:13 72° 257° (WSW) 16:17:25 435.822/435.867
RS-15 22 Aug 16:24:37 16:32:06 17° 0° (N) 16:39:27 29.354- 29.394
DOVE 4 22 Aug 16:33:31 16:36:46 17° 65° (ENE) 16:39:57 437.250
MOZHAYETS 4 22 Aug 16:34:05 16:38:45 89° 258° (WSW) 16:43:22
Tancredo 1 22 Aug 16:45:35 16:47:37 17° 229° (SW) 16:49:38 437.200
ISS 22 Aug 16:50:49 16:54:05 88° 220° (SW) 16:57:20 437.550
nSIGHT-1 22 Aug 16:56:40 16:59:53 71° 222° (SW) 17:03:05 .
CUBESAT XI-V 22 Aug 16:59:26 17:03:41 32° 97° (E) 17:07:53 437.345
BEESAT 22 Aug 17:07:45 17:12:06 36° 290° (WNW) 17:16:26 436.000
YUBILEINY 22 Aug 17:11:39 17:20:09 53° 282° (WNW) 17:28:41 435.215
LilacSat-2 22 Aug 17:26:35 17:28:28 13° 67° (ENE) 17:30:22 437.200
XW-2D 22 Aug 17:28:13 17:30:06 13° 67° (ENE) 17:32:00 145.860 - 145.880
AO-7 22 Aug 17:31:49 17:37:38 20° 267° (W) 17:43:29 .
XW-2B 22 Aug 17:38:38 17:41:08 17° 69° (ENE) 17:43:40 145.730 - 145.750
ITUPSAT 1 22 Aug 17:44:32 17:47:33 17° 295° (WNW) 17:50:35 437.325
XW-2C 22 Aug 17:56:57 18:00:13 29° 72° (ENE) 18:03:31 145.795 - 145.815
XW-2F 22 Aug 18:07:10 18:10:37 37° 73° (ENE) 18:14:06 145.980 - 146.000
KKS-1 22 Aug 18:07:34 18:12:01 76° 103° (ESE) 18:16:25 437.445
DOVE 4 22 Aug 18:08:43 18:13:56 59° 260° (W) 18:19:03 437.250
KAITUO 1B 22 Aug 18:28:36 18:32:13 56° 75° (ENE) 18:35:53 145.475/437.950
CUTE-I 22 Aug 18:30:14 18:35:33 70° 74° (ENE) 18:40:53 437.470
CUBESAT XI-V 22 Aug 18:37:07 18:40:50 23° 292° (WNW) 18:44:32 437.345
RS-15 22 Aug 18:39:56 18:50:21 31° 36° (NE) 19:00:17 29.354- 29.394
STARS 22 Aug 18:40:19 18:44:41 70° 102° (ESE) 18:49:01 437.465
HO-68 22 Aug 18:50:37 18:57:15 43° 66° (ENE) 19:03:54 435.675
NUDT-PHONESAT 22 Aug 18:58:13 19:01:48 57° 259° (W) 19:05:27 437.300
LilacSat-2 22 Aug 18:58:52 19:02:23 37° 262° (W) 19:05:56 437.200
XW-2D 22 Aug 19:00:27 19:03:55 36° 262° (W) 19:07:27 145.860 - 145.880
XW-2B 22 Aug 19:11:52 19:15:06 27° 264° (W) 19:18:22 145.730 - 145.750
CUTE 1.7 + AOD 2 22 Aug 19:15:02 19:19:03 44° 73° (ENE) 19:23:07 437.475
O/OREOS (USA 219) 22 Aug 19:17:00 19:21:22 44° 65° (ENE) 19:25:44 437.305
XW-2A 22 Aug 19:27:50 19:30:39 26° 72° (ENE) 19:33:29 145.665 - 145.685
XW-2C 22 Aug 19:32:06 19:34:26 16° 267° (W) 19:36:48 145.795 - 145.815
UWE-3 22 Aug 19:37:03 19:40:20 23° 70° (ENE) 19:43:35 435.000/436.395/437.385
XW-2F 22 Aug 19:43:17 19:44:54 12° 268° (W) 19:46:30 145.980 - 146.000
CUBEBUG 2 22 Aug 19:47:50 19:52:00 55° 75° (ENE) 19:56:06 437.445
SEEDS 22 Aug 19:58:32 20:02:44 90° 319° (NW) 20:06:59 437.485
STRAND 1 22 Aug 19:59:35 20:04:08 32° 97° (E) 20:08:40 437.568
ZACube-1 22 Aug 20:11:33 20:15:10 29° 71° (ENE) 20:18:45 437.345
CUTE-I 22 Aug 20:13:35 20:16:03 13° 269° (W) 20:18:31 437.470
STARS 22 Aug 20:19:52 20:20:24 10° 298° (WNW) 20:20:57 437.465
AO-73 22 Aug 20:31:03 20:34:58 44° 74° (ENE) 20:38:55 145.935
AAUSAT CUBESAT 2 22 Aug 20:37:34 20:41:42 72° 258° (WSW) 20:45:53 437.432
HO-68 22 Aug 20:38:39 20:45:00 34° 263° (W) 20:51:22 435.675
RS-15 22 Aug 20:52:26 21:04:30 87° 241° (WSW) 21:15:51 29.354- 29.394
CUTE 1.7 + AOD 2 22 Aug 20:52:59 20:55:06 13° 268° (W) 20:57:14 437.475
O/OREOS (USA 219) 22 Aug 20:57:40 21:00:21 16° 261° (W) 21:03:02 437.305
XW-2A 22 Aug 21:01:44 21:03:24 13° 267° (W) 21:05:04 145.665 - 145.685
Oscar 11 22 Aug 21:13:07 21:17:24 78° 259° (W) 21:21:44 .
UWE-3 22 Aug 21:13:10 21:16:39 25° 264° (W) 21:20:08 435.000/436.395/437.385
DELFI C3 22 Aug 21:23:54 21:27:21 29° 71° (ENE) 21:30:49 145.870
FO-29 22 Aug 21:27:14 21:30:40 17° 91° (E) 21:34:01 435.910
CUBEBUG 2 22 Aug 21:27:56 21:28:55 11° 269° (W) 21:29:53 437.445
EO-88 22 Aug 21:33:21 21:36:02 20° 70° (ENE) 21:38:43 145.990 - 145.960
STRAND 1 22 Aug 21:38:55 21:43:09 27° 293° (WNW) 21:47:24 437.568
ZACube-1 22 Aug 21:48:28 21:51:27 19° 266° (W) 21:54:27 437.345
AO-73 22 Aug 22:09:36 22:11:26 13° 268° (W) 22:13:15 145.935
Max Valier Satellite 22 Aug 22:16:43 22:20:22 79° 260° (W) 22:24:01 145.860
PRISM 22 Aug 22:18:47 22:20:51 13° 93° (E) 22:22:54 437.425
PCSat 22 Aug 22:35:51 22:41:14 74° 115° (ESE) 22:46:40 145.827
ESTCUBE 1 22 Aug 22:36:36 22:38:36 13° 64° (ENE) 22:40:36 437.505/2401.250
UNISAT 6 22 Aug 22:52:35 22:56:52 57° 100° (E) 23:01:13 437.425
LO-87 22 Aug 22:55:34 22:58:33 25° 71° (ENE) 23:01:33 145.935 - 145.965
DELFI C3 22 Aug 22:59:16 23:02:06 19° 266° (W) 23:04:58 145.870
SO-50 22 Aug 23:00:10 23:04:40 78° 119° (ESE) 23:09:10 436.795
EO-88 22 Aug 23:06:41 23:09:33 22° 264° (W) 23:12:26 145.990 - 145.960
RS-15 22 Aug 23:07:36 23:15:01 20° 262° (W) 23:22:17 29.354- 29.394
FO-29 22 Aug 23:10:56 23:16:11 48° 289° (WNW) 23:21:09 435.910
TIGRISAT 22 Aug 23:27:02 23:31:20 62° 284° (WNW) 23:35:40 435.000
PRISM 22 Aug 23:52:25 23:56:18 42° 288° (WNW) 00:00:09 437.425
SPROUT 22 Aug 23:58:24 00:01:45 23° 69° (ENE) 00:05:05 437.525
VELOX 1 23 Aug 00:07:55 00:11:31 25° 69° (ENE) 00:15:08 145.980
ESTCUBE 1 23 Aug 00:10:25 00:14:51 59° 259° (W) 00:19:21 437.505/2401.250
NO-84 23 Aug 00:16:25 00:19:00 26° 129° (SE) 00:21:29 435.350 FM
PCSat 23 Aug 00:21:45 00:25:13 17° 313° (NW) 00:28:42 145.827
LO-87 23 Aug 00:29:37 00:31:57 16° 266° (W) 00:34:17 145.935 - 145.965
NANOSAT C BR1 23 Aug 00:30:33 00:34:11 28° 97° (E) 00:37:49 145.865
UNISAT 6 23 Aug 00:31:20 00:33:06 12° 295° (WNW) 00:34:53 437.425
M-CUBED/EXP-1 PRIME 23 Aug 00:33:20 00:37:24 44° 103° (ESE) 00:41:10 437.505
POLYITAN 1 23 Aug 00:37:14 00:41:11 38° 98° (E) 00:45:07 437.675
SO-50 23 Aug 00:43:27 00:45:40 13° 317° (NW) 00:47:54 436.795
AIST 2D 23 Aug 00:46:05 00:49:32 48° 285° (WNW) 00:52:58 435.315
EO-79 23 Aug 00:52:13 00:56:23 58° 100° (E) 01:00:31 145.935-145.965
QB50P2 23 Aug 00:52:21 00:56:33 66° 101° (E) 01:00:45 145.880/145.840
50 SAT 23 Aug 00:53:41 00:56:27 23° 71° (ENE) 00:59:14 437.505
BUGSAT 1 23 Aug 01:11:05 01:13:52 18° 94° (E) 01:16:39 437.445
UKube-1 23 Aug 01:11:50 01:15:12 22° 68° (ENE) 01:18:34 .
DUCHIFAT 1 23 Aug 01:19:20 01:23:31 84° 285° (WNW) 01:27:43 145.980
Oscar 19 23 Aug 01:20:27 01:22:06 11° 90° (E) 01:23:45 437.125/150
YUBILEINY 23 Aug 01:30:25 01:33:55 13° 60° (ENE) 01:37:25 435.215
SPROUT 23 Aug 01:33:52 01:37:29 27° 264° (W) 01:41:07 437.525
DX 1 23 Aug 01:37:14 01:41:35 68° 74° (ENE) 01:45:57 434.975-435.025
VELOX 1 23 Aug 01:44:00 01:47:49 28° 264° (W) 01:51:39 145.980
NO-84 23 Aug 01:54:10 01:56:21 19° 324° (NW) 01:58:31 435.350 FM
NANOSAT C BR1 23 Aug 02:06:31 02:09:43 21° 292° (WNW) 02:12:54 145.865
M-CUBED/EXP-1 PRIME 23 Aug 02:08:52 02:11:22 15° 301° (WNW) 02:13:45 437.505
POLYITAN 1 23 Aug 02:13:59 02:16:38 17° 293° (WNW) 02:19:18 437.675
50 SAT 23 Aug 02:26:55 02:29:04 16° 265° (W) 02:31:15 437.505
EO-79 23 Aug 02:30:20 02:31:36 11° 296° (WNW) 02:32:53 145.935-145.965
QB50P2 23 Aug 02:31:21 02:31:45 10° 297° (WNW) 02:32:10 145.880/145.840
BEESAT 23 Aug 02:35:33 02:39:04 21° 66° (ENE) 02:42:36 436.000
BUGSAT 1 23 Aug 02:45:43 02:49:14 30° 289° (WNW) 02:52:47 437.445
UKube-1 23 Aug 02:47:16 02:51:03 29° 263° (W) 02:54:49 .
Gurwin Techsat 1B 23 Aug 02:49:52 02:55:07 60° 101° (E) 03:00:22 435.225
Oscar 19 23 Aug 02:56:42 03:01:55 75° 285° (WNW) 03:07:05 437.125/150
ITUPSAT 1 23 Aug 03:10:22 03:14:54 46° 72° (ENE) 03:19:27 437.325
YUBILEINY 23 Aug 03:23:39 03:32:22 73° 82° (E) 03:41:02 435.215
MOZHAYETS 4 23 Aug 03:33:51 03:38:21 69° 76° (ENE) 03:42:55
AO-7 23 Aug 03:40:23 03:47:15 28° 96° (E) 03:54:03 .
CUBESAT XI-V 23 Aug 04:01:04 04:04:56 26° 69° (ENE) 04:08:49 437.345
BEESAT 23 Aug 04:12:10 04:16:34 37° 261° (W) 04:20:59 436.000
ITAMSAT 1 23 Aug 04:21:44 04:26:42 46° 100° (E) 04:31:38 435.822/435.867
AO-85 23 Aug 04:30:56 04:34:04 22° 113° (ESE) 04:37:09 145.980
Gurwin Techsat 1B 23 Aug 04:31:17 04:34:32 17° 297° (WNW) 04:37:47 435.225
BEESAT 3 23 Aug 04:47:32 04:51:29 66° 119° (ESE) 04:55:30 437.485
ITUPSAT 1 23 Aug 04:49:59 04:52:56 16° 267° (W) 04:55:53 437.325
KKS-1 23 Aug 05:03:29 05:07:51 55° 74° (ENE) 05:12:13 437.445
BEESAT 2 23 Aug 05:07:40 05:11:13 32° 114° (ESE) 05:14:50 435.950
YUBILEINY 23 Aug 05:22:11 05:28:12 21° 280° (W) 05:34:13 435.215
AO-7 23 Aug 05:32:15 05:40:24 60° 293° (WNW) 05:48:28 .
STARS 23 Aug 05:34:50 05:39:04 48° 73° (ENE) 05:43:18 437.465
CUBESAT XI-V 23 Aug 05:38:11 05:42:10 28° 264° (W) 05:46:12 437.345
ITAMSAT 1 23 Aug 06:02:04 06:05:49 20° 295° (WNW) 06:09:32 435.822/435.867
DOVE 4 23 Aug 06:10:06 06:14:19 41° 98° (E) 06:18:19 437.250
AO-85 23 Aug 06:10:58 06:14:18 26° 308° (NW) 06:17:39 145.980
BEESAT 3 23 Aug 06:27:39 06:29:30 13° 316° (NW) 06:31:19 437.485
NUDT-PHONESAT 23 Aug 06:31:17 06:33:24 14° 93° (E) 06:35:31 437.300
LilacSat-2 23 Aug 06:33:48 06:37:01 24° 96° (E) 06:40:11 437.200
XW-2D 23 Aug 06:34:41 06:37:50 24° 96° (E) 06:40:58 145.860 - 145.880
KKS-1 23 Aug 06:42:54 06:44:41 12° 268° (W) 06:46:29 437.445
XW-2B 23 Aug 06:45:35 06:49:02 31° 97° (E) 06:52:28 145.730 - 145.750
BEESAT 2 23 Aug 06:45:54 06:49:00 21° 310° (NW) 06:52:10 435.950
CUTE-I 23 Aug 06:49:28 06:54:10 31° 97° (E) 06:58:49 437.470
NO-84 23 Aug 06:51:59 06:52:42 11° 30° (NNE) 06:53:24 435.350 FM
XW-2C 23 Aug 07:04:32 07:08:21 57° 101° (E) 07:12:07 145.795 - 145.815
STARS 23 Aug 07:13:27 07:15:38 13° 268° (W) 07:17:48 437.465
STRAND 1 23 Aug 07:13:37 07:18:20 39° 70° (ENE) 07:23:03 437.568
XW-2F 23 Aug 07:14:25 07:18:16 73° 101° (E) 07:22:05 145.980 - 146.000
PCSat 23 Aug 07:25:38 07:30:45 40° 56° (NE) 07:35:49 145.827
AO-7 23 Aug 07:28:26 07:31:26 12° 313° (NW) 07:34:26 .
SO-50 23 Aug 07:33:02 07:37:22 41° 54° (NE) 07:41:44 436.795
KAITUO 1B 23 Aug 07:35:01 07:38:49 76° 283° (WNW) 07:42:37 145.475/437.950
Tancredo 1 23 Aug 07:35:30 07:37:30 17° 131° (SE) 07:39:30 437.200
CUBEBUG 2 23 Aug 07:41:41 07:43:36 13° 92° (E) 07:45:32 437.445
SEEDS 23 Aug 07:45:03 07:47:52 17° 93° (E) 07:50:39 437.485
DOVE 4 23 Aug 07:48:55 07:51:36 16° 295° (WNW) 07:54:11 437.250
NUDT-PHONESAT 23 Aug 08:03:59 08:07:20 32° 288° (WNW) 08:10:43 437.300
HO-68 23 Aug 08:07:11 08:14:10 53° 101° (E) 08:21:07 435.675
LilacSat-2 23 Aug 08:08:11 08:11:07 21° 290° (WNW) 08:14:04 437.200
XW-2D 23 Aug 08:08:57 08:11:52 21° 290° (WNW) 08:14:47 145.860 - 145.880
XW-2B 23 Aug 08:20:29 08:22:56 16° 292° (WNW) 08:25:23 145.730 - 145.750
AAUSAT CUBESAT 2 23 Aug 08:22:06 08:25:10 20° 94° (E) 08:28:13 437.432
XW-2A 23 Aug 08:23:12 08:26:22 35° 98° (E) 08:29:32 145.665 - 145.685
NO-84 23 Aug 08:27:22 08:30:25 87° 228° (SW) 08:33:43 435.350 FM
CUTE-I 23 Aug 08:29:32 08:34:06 30° 292° (WNW) 08:38:39 437.470
CUTE 1.7 + AOD 2 23 Aug 08:36:56 08:41:13 69° 284° (WNW) 08:45:29 437.475
STRAND 1 23 Aug 08:53:40 08:57:36 22° 265° (W) 09:01:33 437.568
Oscar 11 23 Aug 09:02:39 09:06:01 22° 95° (E) 09:09:22 .
UWE-3 23 Aug 09:03:03 09:07:20 66° 101° (ESE) 09:11:41 435.000/436.395/437.385
RS-15 23 Aug 09:06:31 09:12:55 16° 96° (E) 09:19:20 29.354- 29.394
PCSat 23 Aug 09:09:29 09:13:54 26° 253° (WSW) 09:18:17 145.827
Tancredo 1 23 Aug 09:09:47 09:12:28 33° 326° (NNW) 09:15:10 437.200
SO-50 23 Aug 09:14:14 09:17:32 20° 249° (WSW) 09:20:50 436.795
CUBEBUG 2 23 Aug 09:16:21 09:20:26 48° 286° (WNW) 09:24:36 437.445
FO-29 23 Aug 09:18:34 09:25:57 59° 72° (ENE) 09:32:38 435.910
SEEDS 23 Aug 09:19:45 09:23:38 35° 288° (WNW) 09:27:30 437.485
O/OREOS (USA 219) 23 Aug 09:27:15 09:31:41 75° 110° (ESE) 09:36:10 437.305
ISS 23 Aug 09:29:12 09:32:28 77° 140° (SE) 09:35:45 437.550
nSIGHT-1 23 Aug 09:33:53 09:37:10 87° 323° (NW) 09:40:26 .
ZACube-1 23 Aug 09:36:30 09:40:51 86° 104° (ESE) 09:45:16 437.345
UNISAT 6 23 Aug 09:49:42 09:53:42 38° 72° (ENE) 09:57:41 437.425
Max Valier Satellite 23 Aug 09:50:44 09:51:29 10° 92° (E) 09:52:13 145.860
HO-68 23 Aug 09:55:36 10:01:29 29° 298° (WNW) 10:07:23 435.675
AO-73 23 Aug 09:56:03 10:00:20 64° 284° (WNW) 10:04:42 145.935
AAUSAT CUBESAT 2 23 Aug 09:56:59 10:00:37 29° 289° (WNW) 10:04:14 437.432
XW-2A 23 Aug 09:57:43 09:58:43 11° 293° (WNW) 09:59:44 145.665 - 145.685
TIGRISAT 23 Aug 10:23:37 10:27:56 89° 80° (E) 10:32:13 435.000
EO-88 23 Aug 10:36:18 10:39:37 31° 97° (E) 10:42:56 145.990 - 145.960
DELFI C3 23 Aug 10:36:29 10:40:26 60° 101° (E) 10:44:19 145.870
Oscar 11 23 Aug 10:38:21 10:42:08 30° 289° (WNW) 10:45:54 .
PRISM 23 Aug 10:39:03 10:43:12 80° 256° (WSW) 10:47:24 437.425
UWE-3 23 Aug 10:42:27 10:43:14 10° 296° (WNW) 10:44:02 435.000/436.395/437.385
JUGNU 23 Aug 10:56:13 10:58:38 13° 176° (S) 11:01:04 437.505
FO-29 23 Aug 11:05:10 11:11:08 25° 266° (W) 11:16:45 435.910
ISS 23 Aug 11:07:06 11:09:17 16° 336° (NNW) 11:11:28 437.550
O/OREOS (USA 219) 23 Aug 11:10:32 11:11:39 11° 306° (NW) 11:12:45 437.305
RS-15 23 Aug 11:11:06 11:23:13 76° 115° (ESE) 11:35:32 29.354- 29.394
nSIGHT-1 23 Aug 11:11:59 11:13:56 15° 337° (NNW) 11:15:54 .
M-CUBED/EXP-1 PRIME 23 Aug 11:16:11 11:20:29 44° 67° (ENE) 11:24:55 437.505
AIST 2D 23 Aug 11:18:20 11:21:35 38° 74° (ENE) 11:24:51 435.315
NANOSAT C BR1 23 Aug 11:21:34 11:24:19 17° 67° (ENE) 11:27:04 145.865
Max Valier Satellite 23 Aug 11:21:58 11:25:30 43° 286° (WNW) 11:29:02 145.860
UNISAT 6 23 Aug 11:27:52 11:30:33 16° 267° (W) 11:33:11 437.425
POLYITAN 1 23 Aug 11:28:22 11:31:40 23° 69° (ENE) 11:34:59 437.675
EO-79 23 Aug 11:42:48 11:46:34 33° 72° (ENE) 11:50:21 145.935-145.965
QB50P2 23 Aug 11:43:02 11:46:55 37° 72° (ENE) 11:50:48 145.880/145.840
LO-87 23 Aug 11:56:48 12:00:08 39° 99° (E) 12:03:27 145.935 - 145.965
BUGSAT 1 23 Aug 12:01:04 12:01:58 11° 64° (ENE) 12:02:52 437.445
ESTCUBE 1 23 Aug 12:04:45 12:08:50 32° 97° (E) 12:12:53 437.505/2401.250
DUCHIFAT 1 23 Aug 12:08:57 12:13:00 53° 74° (ENE) 12:17:04 145.980
EO-88 23 Aug 12:10:55 12:12:59 15° 292° (WNW) 12:15:03 145.990 - 145.960
Oscar 19 23 Aug 12:35:05 12:38:02 16° 63° (ENE) 12:41:01 437.125/150
JUGNU 23 Aug 12:44:39 12:46:46 12° 186° (S) 12:48:53 437.505
M-CUBED/EXP-1 PRIME 23 Aug 12:51:59 12:55:02 18° 263° (W) 12:58:10 437.505
AIST 2D 23 Aug 12:54:52 12:54:57 10° 269° (W) 12:55:01 435.315
NANOSAT C BR1 23 Aug 12:55:54 12:59:43 35° 262° (W) 13:03:35 145.865
SRMSAT 23 Aug 13:02:08 13:03:38 11° 172° (S) 13:05:09 437.500
AO-85 23 Aug 13:03:00 13:05:44 16° 47° (NE) 13:08:33 145.980
POLYITAN 1 23 Aug 13:03:48 13:07:19 26° 264° (W) 13:10:51 437.675
BEESAT 3 23 Aug 13:06:22 13:09:33 22° 50° (NE) 13:12:41 437.485
